ROMMA est une association bénévole à but non lucratif. Votre soutien est indispensable : ADHERER à ROMMA ou FAIRE un DON

Saint-Martin-d'Hères - (38, Isère)

Vallée du Grésivaudan (220 m)   Longitude: 05° 45' 05" E   Latitude: 45° 10' 02" N Station partenaire n°4
 

Détail journalier du     <<     >>

Température Precipitation Humidité Pression Vent Dir Rafale Dir. rafale Ensol.
Heure (°C) (mm) (%) (hPa) (km/h) (km/h) (min)
01:00 15.2090101702SSE0
02:00 14.3091101600---0
03:00 13.3093101600---0
04:00 12.8094101500---0
05:00 12.6095101500---0
06:00 12.4095101500---0
07:00 12.0095101400---0
08:00 11.6095101402SSE0
09:00 12.7096101406SSE20
10:00 13.6095101402SSE0
11:00 15.60881014010SO10
12:00 17.108010141SSO15SSO0
13:00 19.506710131S15SSO20
14:00 20.4063101202ONO0
15:00 22.305910114NO19NNO30
16:00 23.105510116NO18NO30
17:00 22.705910101NNO11NO0
18:00 20.906610102---16NNO0
19:00 19.2068101000---10
20:00 17.6072101000---0
21:00 17.4070101100---0
22:00 17.2073101100---0
23:00 16.4075101200---0
minuit 16.3075101205S0

Graphique du 14-10-2018

 

Serveur OMMA